Weather History for Brunswick, GA

Change the Weather History Date:

Friday, June 8, 2012

  Actual Average Record
Temperature  
Mean Temperature 73 °F -  
Max Temperature 80 °F 87 °F 99 °F (1952)
Min Temperature 66 °F 69 °F 51 °F (1998)
Cooling Degree Days 8    
Growing Degree Days 23 (Base 50)    
Moisture  
Dew Point 64 °F    
Average Humidity 76    
Maximum Humidity 88    
Minimum Humidity 54    
Precipitation  
Precipitation 0.00 in - - ()
Sea Level Pressure  
Sea Level Pressure 30.01 in    
Wind  
Wind Speed 10 mph (ENE)    
Max Wind Speed 18 mph    
Max Gust Speed 24 mph    
Visibility 10 miles    
Events      
Averages and records for this station are not official NWS values.
T = Trace of Precipitation, MM = Missing Value Source: NWS Daily Summary

Daily Weather History Graph

Daily Weather History Graph

Search for Another Location

Airport:

Trip Planner

Search our weather history database for the weather conditions in past years. The results will help you decide how hot, cold, wet, or windy it might be!

Date:

Astronomy

Jun. 08, 2012 Rise Set
Actual Time 6:21 AM EDT 8:29 PM EDT
Civil Twilight 5:53 AM EDT 8:56 PM EDT
Nautical Twilight 5:19 AM EDT 9:30 PM EDT
Astronomical Twilight 4:43 AM EDT 10:07 PM EDT
Moon No Moon Rise 10:47 AM EDT (6/8)
Length of Visible Light 15h 03m
Length of Day
14h 07m
Waning Gibbous, 77% of the Moon is Illuminated
Jun 8
Waning Gibbous
Jun 11
Last Quarter
Jun 19
New
Jun 26
First Quarter
Jul 3
Full

Hourly Weather History & Observations

Time (EDT) Temp. Heat Index Dew Point Humidity Pressure Visibility Wind Dir Wind Speed Gust Speed Precip Events Conditions
12:15 AM 69.8 °F - 66.2 °F 88% 30.00 in 10.0 mi NE 10.4 mph 16.1 mph N/A   Overcast
12:35 AM 71.6 °F - 64.4 °F 78% 30.00 in 10.0 mi ENE 12.7 mph 17.3 mph N/A   Overcast
12:55 AM 71.6 °F - 62.6 °F 73% 29.99 in 10.0 mi NE 9.2 mph - N/A   Overcast
1:15 AM 69.8 °F - 64.4 °F 83% 29.99 in 7.0 mi NE 13.8 mph 21.9 mph N/A   Overcast
1:35 AM 69.8 °F - 66.2 °F 88% 29.99 in 7.0 mi NE 8.1 mph - N/A   Overcast
1:55 AM 68.0 °F - 64.4 °F 88% 29.98 in 5.0 mi ENE 11.5 mph - N/A   Overcast
2:15 AM 68.0 °F - 64.4 °F 88% 29.98 in 5.0 mi NE 11.5 mph - N/A   Overcast
2:35 AM 68.0 °F - 64.4 °F 88% 29.98 in 10.0 mi NE 8.1 mph - N/A   Overcast
2:55 AM 68.0 °F - 64.4 °F 88% 29.98 in 10.0 mi NNE 5.8 mph - N/A   Overcast
3:15 AM 68.0 °F - 64.4 °F 88% 29.97 in 10.0 mi NE 8.1 mph - N/A   Overcast
3:35 AM 68.0 °F - 62.6 °F 83% 29.97 in 10.0 mi NNE 8.1 mph - N/A   Overcast
3:55 AM 68.0 °F - 64.4 °F 88% 29.97 in 10.0 mi NE 5.8 mph - N/A   Overcast
4:15 AM 68.0 °F - 62.6 °F 83% 29.97 in 10.0 mi NE 8.1 mph - N/A   Overcast
4:35 AM 68.0 °F - 62.6 °F 83% 29.98 in 10.0 mi NNE 8.1 mph - N/A   Overcast
4:55 AM 66.2 °F - 62.6 °F 88% 29.98 in 10.0 mi NE 10.4 mph - N/A   Overcast
5:15 AM 66.2 °F - 62.6 °F 88% 29.98 in 10.0 mi NNE 6.9 mph - N/A   Overcast
5:35 AM 68.0 °F - 62.6 °F 83% 29.98 in 10.0 mi NE 8.1 mph - N/A   Overcast
5:55 AM 66.2 °F - 62.6 °F 88% 29.98 in 10.0 mi NE 6.9 mph - N/A   Overcast
6:15 AM 66.2 °F - 62.6 °F 88% 29.98 in 10.0 mi NE 6.9 mph - N/A   Overcast
6:35 AM 66.2 °F - 62.6 °F 88% 29.99 in 10.0 mi NE 8.1 mph - N/A   Overcast
6:55 AM 68.0 °F - 62.6 °F 83% 29.99 in 10.0 mi NE 10.4 mph 16.1 mph N/A   Overcast
7:15 AM 68.0 °F - 62.6 °F 83% 30.00 in 10.0 mi NE 9.2 mph - N/A   Overcast
7:35 AM 68.0 °F - 62.6 °F 83% 30.01 in 10.0 mi NE 11.5 mph 18.4 mph N/A   Overcast
7:55 AM 68.0 °F - 62.6 °F 83% 30.01 in 10.0 mi NNE 8.1 mph - N/A   Overcast
8:15 AM 68.0 °F - 62.6 °F 83% 30.02 in 10.0 mi NE 8.1 mph - N/A   Overcast
8:35 AM 68.0 °F - 64.4 °F 88% 30.03 in 10.0 mi NE 9.2 mph - N/A   Overcast
8:55 AM 68.0 °F - 64.4 °F 88% 30.03 in 10.0 mi NE 8.1 mph - N/A   Overcast
9:15 AM 68.0 °F - 64.4 °F 88% 30.04 in 5.0 mi ENE 13.8 mph - N/A   Overcast
9:35 AM 68.0 °F - 64.4 °F 88% 30.03 in 10.0 mi ENE 10.4 mph - N/A   Overcast
9:55 AM 69.8 °F - 66.2 °F 88% 30.03 in 10.0 mi ENE 10.4 mph - N/A   Overcast
10:15 AM 69.8 °F - 66.2 °F 88% 30.03 in 10.0 mi ENE 10.4 mph - N/A   Overcast
10:35 AM 71.6 °F - 66.2 °F 83% 30.04 in 10.0 mi East 9.2 mph - N/A   Overcast
10:55 AM 71.6 °F - 64.4 °F 78% 30.05 in 10.0 mi East 10.4 mph - N/A   Overcast
11:15 AM 73.4 °F - 62.6 °F 69% 30.05 in 10.0 mi East 13.8 mph - N/A   Overcast
11:35 AM 73.4 °F - 62.6 °F 69% 30.05 in 10.0 mi East 10.4 mph - N/A   Overcast
11:55 AM 75.2 °F - 62.6 °F 65% 30.05 in 10.0 mi East 10.4 mph - N/A   Overcast
12:15 PM 77.0 °F - 62.6 °F 61% 30.04 in 10.0 mi East 10.4 mph - N/A   Overcast
12:35 PM 77.0 °F - 64.4 °F 65% 30.04 in 10.0 mi ENE 11.5 mph - N/A   Overcast
12:55 PM 78.8 °F - 62.6 °F 57% 30.03 in 10.0 mi ENE 13.8 mph - N/A   Overcast
1:15 PM 78.8 °F - 62.6 °F 57% 30.03 in 10.0 mi ENE 16.1 mph 20.7 mph N/A   Mostly Cloudy
1:35 PM 80.6 °F 81.8 °F 62.6 °F 54% 30.02 in 10.0 mi East 17.3 mph 20.7 mph N/A   Mostly Cloudy
1:55 PM 80.6 °F 81.8 °F 62.6 °F 54% 30.02 in 10.0 mi ENE 16.1 mph 21.9 mph N/A   Mostly Cloudy
2:15 PM 78.8 °F - 62.6 °F 57% 30.01 in 10.0 mi ENE 17.3 mph 20.7 mph N/A   Overcast
2:35 PM 80.6 °F 82.3 °F 64.4 °F 58% 30.01 in 10.0 mi ENE 18.4 mph - N/A   Overcast
2:55 PM 78.8 °F - 64.4 °F 61% 30.01 in 10.0 mi ENE 18.4 mph - N/A   Overcast
3:15 PM 80.6 °F 81.8 °F 62.6 °F 54% 30.01 in 10.0 mi East 17.3 mph 23.0 mph N/A   Mostly Cloudy
3:35 PM 78.8 °F - 62.6 °F 57% 30.02 in 10.0 mi NE 15.0 mph 24.2 mph N/A   Mostly Cloudy
3:55 PM 80.6 °F 82.3 °F 64.4 °F 58% 30.02 in 10.0 mi NE 13.8 mph - N/A   Mostly Cloudy
4:15 PM 78.8 °F - 62.6 °F 57% 30.01 in 10.0 mi ENE 15.0 mph - N/A   Mostly Cloudy
4:35 PM 80.6 °F 81.8 °F 62.6 °F 54% 30.02 in 10.0 mi East 13.8 mph - N/A   Mostly Cloudy
4:55 PM 78.8 °F - 64.4 °F 61% 30.01 in 10.0 mi East 11.5 mph - N/A   Scattered Clouds
5:15 PM 78.8 °F - 62.6 °F 57% 30.01 in 10.0 mi NE 12.7 mph 19.6 mph N/A   Scattered Clouds
5:35 PM 78.8 °F - 62.6 °F 57% 30.01 in 10.0 mi ENE 13.8 mph - N/A   Clear
5:55 PM 78.8 °F - 62.6 °F 57% 30.02 in 10.0 mi ENE 10.4 mph 18.4 mph N/A   Clear
6:15 PM 78.8 °F - 62.6 °F 57% 30.02 in 10.0 mi ENE 11.5 mph 16.1 mph N/A   Clear
6:35 PM 77.0 °F - 62.6 °F 61% 30.02 in 10.0 mi ENE 9.2 mph - N/A   Clear
6:55 PM 77.0 °F - 62.6 °F 61% 30.03 in 10.0 mi ENE 10.4 mph - N/A   Clear
7:15 PM 77.0 °F - 62.6 °F 61% 30.03 in 10.0 mi NE 6.9 mph - N/A   Clear
7:35 PM 75.2 °F - 62.6 °F 65% 30.03 in 10.0 mi ENE 5.8 mph - N/A   Clear
7:55 PM 73.4 °F - 64.4 °F 73% 30.03 in 10.0 mi ENE 4.6 mph - N/A   Clear
8:15 PM 71.6 °F - 64.4 °F 78% 30.03 in 10.0 mi ENE 3.5 mph - N/A   Clear
8:35 PM 71.6 °F - 64.4 °F 78% 30.03 in 10.0 mi Calm Calm - N/A   Clear
8:55 PM 71.6 °F - 64.4 °F 78% 30.03 in 10.0 mi Calm Calm - N/A   Clear
9:15 PM 69.8 °F - 64.4 °F 83% 30.03 in 10.0 mi Calm Calm - N/A   Clear
9:35 PM 69.8 °F - 64.4 °F 83% 30.03 in 10.0 mi Calm Calm - N/A   Clear
9:55 PM 68.0 °F - 64.4 °F 88% 30.03 in 10.0 mi Calm Calm - N/A   Clear
10:15 PM 68.0 °F - 64.4 °F 88% 30.03 in 10.0 mi Calm Calm - N/A   Clear
10:35 PM 68.0 °F - 64.4 °F 88% 30.03 in 10.0 mi Calm Calm - N/A   Clear
10:55 PM 68.0 °F - 64.4 °F 88% 30.03 in 10.0 mi Calm Calm - N/A   Clear
11:15 PM 68.0 °F - 64.4 °F 88% 30.03 in 10.0 mi Calm Calm - N/A   Clear
11:35 PM 68.0 °F - 64.4 °F 88% 30.03 in 10.0 mi Calm Calm - N/A   Clear
11:55 PM 68.0 °F - 64.4 °F 88% 30.03 in 10.0 mi Calm Calm - N/A   Clear